This is the latest recevied weather packets stored in our database for station/object KF6YUA. If no packets are shown the sender has not sent any weather packets the latest 10 day(s).
| Time | Temp. | Humidity | Pressure | Rain* | Wind** | Luminosity | Snow |
|---|---|---|---|---|---|---|---|
| 1777997224 | 15° C | 86% | 1017.2 hPa | 0 mm | - | 302 W/m² | - |
| 1777996922 | 14.44° C | 85% | 1017.1 hPa | 0 mm | - | 261 W/m² | - |
| 1777996618 | 15° C | 87% | 1017.1 hPa | 0 mm | - | 287 W/m² | - |
| 1777996314 | 14.44° C | 89% | 1017.3 hPa | 0 mm | - | 185 W/m² | - |
| 1777996010 | 13.33° C | 88% | 1017.4 hPa | 0 mm | - | 197 W/m² | - |
| 1777995707 | 13.89° C | 90% | 1017.2 hPa | 0 mm | - | 168 W/m² | - |
| 1777995404 | 13.89° C | 91% | 1017.1 hPa | 0 mm | - | 194 W/m² | - |
| 1777995101 | 13.33° C | 90% | 1017.2 hPa | 0 mm | - | 184 W/m² | - |
| 1777994797 | 13.89° C | 94% | 1017.1 hPa | 0 mm | - | 170 W/m² | - |
| 1777994493 | 13.33° C | 95% | 1017.3 hPa | 0 mm | - | 201 W/m² | - |
| 1777994189 | 12.78° C | 95% | 1017 hPa | 0 mm | - | 177 W/m² | - |
| 1777993886 | 12.78° C | 96% | 1017.1 hPa | 0 mm | - | 172 W/m² | - |
| 1777993582 | 12.22° C | 97% | 1017.1 hPa | 0 mm | - | 166 W/m² | - |
| 1777993279 | 11.67° C | 97% | 1016.9 hPa | 0 mm | - | 110 W/m² | - |
| 1777992975 | 11.67° C | 98% | 1016.8 hPa | 0 mm | - | 103 W/m² | - |
| 1777992674 | 11.67° C | 98% | 1017 hPa | 0 mm | - | 91 W/m² | - |
| 1777992371 | 11.67° C | 98% | 1016.7 hPa | 0 mm | - | 82 W/m² | - |
| 1777992069 | 11.67° C | 98% | 1016.7 hPa | 0 mm | - | 78 W/m² | - |
| 1777991766 | 11.67° C | 99% | 1016.8 hPa | 0 mm | - | 88 W/m² | - |
| 1777991463 | 11.67° C | 99% | 1016.9 hPa | 0 mm | - | 86 W/m² | - |
| 1777991160 | 11.67° C | 99% | 1016.8 hPa | 0 mm | - | 81 W/m² | - |
| 1777990857 | 11.67° C | 99% | 1016.7 hPa | 0 mm | - | 57 W/m² | - |
| 1777990554 | 11.67° C | 99% | 1016.7 hPa | 0 mm | - | 56 W/m² | - |
| 1777989948 | 11.11° C | 99% | 1016.5 hPa | 0 mm | - | 38 W/m² | - |
| 1777989644 | 11.11° C | 99% | 1016.7 hPa | 0 mm | - | 22 W/m² | - |
* Rain latest hour (hover to see other rain measurements)
** Current wind speed in m/s (hover to see current wind gust speed)